User: anonymous   Login
Location: Unspecified
(0.0000°N, 0.0000°E)
Time: 23:31:06
(UTC+00:00)
Language:

STARLINK-30150 - Orbit

View from above orbital plane
View from above orbital plane
View from above satellite
View from above satellite

Ground track
Ground track

The orbit is defined by the following mean orbital elements,

1 57621U          26145.03100262 +.00000000 +00000-0 -47355-5 0 00006
2 57621  43.0047  10.2897 0001285 271.4023  88.6681 15.27588494    03
Epoch (UTC): 25 May 2026 00:44:38
Eccentricity: 0.0001285
inclination: 43.0047°
perigee height: 482 km
apogee height: 484 km
right ascension of ascending node: 10.2897°
argument of perigee: 271.4023°
revolutions per day: 15.27588494
mean anomaly at epoch: 88.6681°

The dashed part of the orbit path shows where the satellite is in the earth's shadow,  

DLR